| time (UTC) | temp F | wind direction | speed MPH | gust MPH | rain 1hr in | rain 24hr in | rain mn in | humidity % | barometer mb |
| 20260506073111 | 69 | 0.0 | 0.0 | 0.00 | 0.00 | 0.00 | 47 | 1010.5 | |
| 20260506072020 | 69 | 0.0 | 0.0 | 0.00 | 0.00 | 0.00 | 48 | 1010.6 | |
| 20260506071020 | 69 | 0.0 | 0.0 | 0.00 | 0.00 | 0.00 | 47 | 1010.6 | |
| 20260506062021 | 69 | 0.0 | 0.0 | 0.00 | 0.00 | 0.00 | 43 | 1010.4 | |
| 20260506061023 | 70 | 0.0 | 0.0 | 0.00 | 0.00 | 0.00 | 42 | 1010.5 | |
| 20260506051020 | 71 | 0.0 | 0.0 | 0.00 | 0.00 | 0.00 | 39 | 1010.4 | |
| 20260506045046 | 71 | 0.0 | 0.0 | 0.00 | 0.00 | 0.00 | 38 | 1009.9 | |
| 20260506044021 | 71 | 0.0 | 0.0 | 0.00 | 0.00 | 0.00 | 38 | 1009.7 | |
| 20260506043021 | 72 | 0.0 | 0.0 | 0.00 | 0.00 | 0.00 | 38 | 1009.9 | |
| 20260506042021 | 72 | 0.0 | 0.0 | 0.00 | 0.00 | 0.00 | 37 | 1009.5 | |
| 20260506041021 | 72 | 0.0 | 0.0 | 0.00 | 0.00 | 0.00 | 37 | 1009.5 | |
| 20260506040021 | 73 | 0.0 | 0.0 | 0.00 | 0.00 | 0.00 | 35 | 1009.6 | |
| 20260506035021 | 74 | 0.0 | 0.0 | 0.00 | 0.00 | 0.00 | 33 | 1009.2 | |
| 20260506034021 | 74 | 0.0 | 0.0 | 0.00 | 0.00 | 0.00 | 33 | 1009.0 | |
| 20260506033021 | 75 | 0.0 | 0.0 | 0.00 | 0.00 | 0.00 | 33 | 1008.9 | |
| 20260506032046 | 76 | 0.0 | 0.0 | 0.00 | 0.00 | 0.00 | 31 | 1008.3 | |
| 20260506031021 | 77 | 0.0 | 0.0 | 0.00 | 0.00 | 0.00 | 31 | 1008.2 | |
| 20260506030049 | 77 | 0.0 | 0.0 | 0.00 | 0.00 | 0.00 | 29 | 1008.0 | |
| 20260506025021 | 78 | 0.0 | 0.0 | 0.00 | 0.00 | 0.00 | 28 | 1007.8 | |
| 20260506024021 | 78 | 0.0 | 0.0 | 0.00 | 0.00 | 0.00 | 28 | 1007.6 | |
| 20260506023046 | 79 | 0.0 | 0.0 | 0.00 | 0.00 | 0.00 | 27 | 1007.5 | |
| 20260506022020 | 80 | 0.0 | 0.0 | 0.00 | 0.00 | 0.00 | 26 | 1007.6 | |
| 20260506021046 | 80 | 0.0 | 0.0 | 0.00 | 0.00 | 0.00 | 26 | 1007.5 | |
| 20260506020021 | 80 | 0.0 | 0.0 | 0.00 | 0.00 | 0.00 | 26 | 1007.6 | |
| 20260506015020 | 81 | 0.0 | 0.0 | 0.00 | 0.00 | 0.00 | 25 | 1007.4 | |
| 20260506014046 | 81 | 0.0 | 0.0 | 0.00 | 0.00 | 0.00 | 24 | 1007.6 | |
| 20260506013020 | 81 | 0.0 | 0.0 | 0.00 | 0.00 | 0.00 | 24 | 1007.5 | |
| 20260506012021 | 82 | 0.0 | 0.0 | 0.00 | 0.00 | 0.00 | 24 | 1007.3 | |
| 20260506011021 | 82 | 0.0 | 0.0 | 0.00 | 0.00 | 0.00 | 24 | 1007.2 | |
| 20260506010021 | 83 | 0.0 | 0.0 | 0.00 | 0.00 | 0.00 | 23 | 1007.2 | |
| 20260506005021 | 83 | 0.0 | 0.0 | 0.00 | 0.00 | 0.00 | 22 | 1007.2 | |
| 20260506004021 | 83 | 0.0 | 0.0 | 0.00 | 0.00 | 0.00 | 22 | 1007.3 | |
| 20260506003021 | 83 | 0.0 | 0.0 | 0.00 | 0.00 | 0.00 | 23 | 1007.2 | |
| 20260506002021 | 82 | 0.0 | 0.0 | 0.00 | 0.00 | 0.00 | 22 | 1007.3 | |
| 20260506001045 | 82 | 0.0 | 0.0 | 0.00 | 0.00 | 0.00 | 23 | 1007.4 | |
| 20260506000020 | 82 | 0.0 | 0.0 | 0.00 | 0.00 | 0.00 | 23 | 1007.7 | |
| 20260505235021 | 82 | 0.0 | 0.0 | 0.00 | 0.00 | 0.00 | 22 | 1007.6 | |
| 20260505234020 | 82 | 0.0 | 0.0 | 0.00 | 0.00 | 0.00 | 22 | 1007.8 | |
| 20260505233020 | 82 | 0.0 | 0.0 | 0.00 | 0.00 | 0.00 | 23 | 1008.0 | |
| 20260505232021 | 82 | 0.0 | 0.0 | 0.00 | 0.00 | 0.00 | 22 | 1008.3 | |
| 20260505231021 | 82 | 0.0 | 0.0 | 0.00 | 0.00 | 0.00 | 22 | 1008.4 | |
| 20260505230021 | 83 | 0.0 | 0.0 | 0.00 | 0.00 | 0.00 | 22 | 1008.4 | |
| 20260505225021 | 83 | 0.0 | 0.0 | 0.00 | 0.00 | 0.00 | 22 | 1008.4 | |
| 20260505224022 | 83 | 0.0 | 0.0 | 0.00 | 0.00 | 0.00 | 22 | 1008.4 | |
| 20260505223046 | 83 | 0.0 | 0.0 | 0.00 | 0.00 | 0.00 | 21 | 1008.6 | |
| 20260505222020 | 83 | 0.0 | 0.0 | 0.00 | 0.00 | 0.00 | 22 | 1008.9 | |
| 20260505221045 | 83 | 0.0 | 0.0 | 0.00 | 0.00 | 0.00 | 21 | 1008.9 | |
| 20260505220021 | 84 | 0.0 | 0.0 | 0.00 | 0.00 | 0.00 | 21 | 1009.0 | |
| 20260505215021 | 84 | 0.0 | 0.0 | 0.00 | 0.00 | 0.00 | 21 | 1008.8 | |
| 20260505214020 | 84 | 0.0 | 0.0 | 0.00 | 0.00 | 0.00 | 21 | 1008.9 | |
| 20260505213021 | 84 | 0.0 | 0.0 | 0.00 | 0.00 | 0.00 | 21 | 1008.7 | |
| 20260505212046 | 85 | 0.0 | 0.0 | 0.00 | 0.00 | 0.00 | 21 | 1009.1 | |
| 20260505211020 | 85 | 0.0 | 0.0 | 0.00 | 0.00 | 0.00 | 20 | 1009.0 | |
| 20260505210020 | 84 | 0.0 | 0.0 | 0.00 | 0.00 | 0.00 | 20 | 1008.8 | |
| 20260505205020 | 85 | 0.0 | 0.0 | 0.00 | 0.00 | 0.00 | 20 | 1009.3 | |
| 20260505204020 | 85 | 0.0 | 0.0 | 0.00 | 0.00 | 0.00 | 21 | 1009.5 | |
| 20260505203020 | 85 | 0.0 | 0.0 | 0.00 | 0.00 | 0.00 | 20 | 1009.6 | |
| 20260505202020 | 86 | 0.0 | 0.0 | 0.00 | 0.00 | 0.00 | 19 | 1009.8 | |
| 20260505201020 | 86 | 0.0 | 0.0 | 0.00 | 0.00 | 0.00 | 19 | 1009.6 | |
| 20260505200045 | 85 | 0.0 | 0.0 | 0.00 | 0.00 | 0.00 | 19 | 1009.6 | |
| 20260505195020 | 85 | 0.0 | 0.0 | 0.00 | 0.00 | 0.00 | 22 | 1009.8 | |
| 20260505194020 | 84 | 0.0 | 0.0 | 0.00 | 0.00 | 0.00 | 22 | 1009.7 | |
| 20260505193020 | 83 | 0.0 | 0.0 | 0.00 | 0.00 | 0.00 | 23 | 1009.7 | |
| 20260505192022 | 84 | 0.0 | 0.0 | 0.00 | 0.00 | 0.00 | 22 | 1009.8 | |
| 20260505191022 | 84 | 0.0 | 0.0 | 0.00 | 0.00 | 0.00 | 23 | 1010.1 | |
| 20260505190022 | 84 | 0.0 | 0.0 | 0.00 | 0.00 | 0.00 | 22 | 1010.2 | |
| 20260505185047 | 84 | 0.0 | 0.0 | 0.00 | 0.00 | 0.00 | 22 | 1010.3 | |
| 20260505184022 | 84 | 0.0 | 0.0 | 0.00 | 0.00 | 0.00 | 21 | 1010.5 | |
| 20260505183047 | 83 | 0.0 | 0.0 | 0.00 | 0.00 | 0.00 | 21 | 1010.6 | |
| 20260505181022 | 83 | 0.0 | 0.0 | 0.00 | 0.00 | 0.00 | 22 | 1010.8 | |
| 20260505180047 | 83 | 0.0 | 0.0 | 0.00 | 0.00 | 0.00 | 22 | 1010.8 | |
| 20260505175022 | 83 | 0.0 | 0.0 | 0.00 | 0.00 | 0.00 | 22 | 1011.1 | |
| 20260505174022 | 83 | 0.0 | 0.0 | 0.00 | 0.00 | 0.00 | 21 | 1011.0 | |
| 20260505173022 | 83 | 0.0 | 0.0 | 0.00 | 0.00 | 0.00 | 22 | 1011.0 | |
| 20260505172047 | 83 | 0.0 | 0.0 | 0.00 | 0.00 | 0.00 | 21 | 1010.9 | |
| 20260505171021 | 83 | 0.0 | 0.0 | 0.00 | 0.00 | 0.00 | 21 | 1010.9 | |
| 20260505170047 | 83 | 0.0 | 0.0 | 0.00 | 0.00 | 0.00 | 22 | 1011.0 | |
| 20260505165022 | 82 | 0.0 | 0.0 | 0.00 | 0.00 | 0.00 | 22 | 1010.9 | |
| 20260505164047 | 82 | 0.0 | 0.0 | 0.00 | 0.00 | 0.00 | 23 | 1010.7 | |
| 20260505163022 | 81 | 0.0 | 0.0 | 0.00 | 0.00 | 0.00 | 23 | 1010.6 | |
| 20260505162024 | 81 | 0.0 | 0.0 | 0.00 | 0.00 | 0.00 | 23 | 1010.9 | |
| 20260505161022 | 80 | 0.0 | 0.0 | 0.00 | 0.00 | 0.00 | 25 | 1010.8 | |
| 20260505153021 | 77 | 0.0 | 0.0 | 0.00 | 0.00 | 0.00 | 29 | 1010.5 | |
| 20260505152022 | 75 | 0.0 | 0.0 | 0.00 | 0.00 | 0.00 | 31 | 1010.4 | |
| 20260505151022 | 74 | 0.0 | 0.0 | 0.00 | 0.00 | 0.00 | 33 | 1010.2 | |
| 20260505125022 | 63 | 0.0 | 0.0 | 0.00 | 0.00 | 0.00 | 80 | 1008.7 | |
| 20260505124046 | 63 | 0.0 | 0.0 | 0.00 | 0.00 | 0.00 | 80 | 1008.7 | |
| 20260505123021 | 63 | 0.0 | 0.0 | 0.00 | 0.00 | 0.00 | 80 | 1008.7 | |
| 20260505122022 | 63 | 0.0 | 0.0 | 0.00 | 0.00 | 0.00 | 79 | 1008.4 | |
| 20260505121023 | 64 | 0.0 | 0.0 | 0.00 | 0.00 | 0.00 | 78 | 1008.4 | |
| 20260505120021 | 64 | 0.0 | 0.0 | 0.00 | 0.00 | 0.00 | 78 | 1008.3 | |
| 20260505115047 | 64 | 0.0 | 0.0 | 0.00 | 0.00 | 0.00 | 77 | 1008.4 | |
| 20260505114021 | 65 | 0.0 | 0.0 | 0.00 | 0.00 | 0.00 | 75 | 1008.3 | |
| 20260505113021 | 67 | 0.0 | 0.0 | 0.00 | 0.00 | 0.00 | 70 | 1008.6 | |
| 20260505112021 | 68 | 0.0 | 0.0 | 0.00 | 0.00 | 0.00 | 61 | 1008.5 | |
| 20260505111021 | 69 | 0.0 | 0.0 | 0.00 | 0.00 | 0.00 | 56 | 1008.4 | |
| 20260505110136 | 68 | 0.0 | 0.0 | 0.00 | 0.00 | 0.00 | 55 | 1008.4 | |
| 20260505102021 | 72 | 0.0 | 0.0 | 0.00 | 0.00 | 0.00 | 47 | 1008.6 | |
| 20260505101111 | 72 | 0.0 | 0.0 | 0.00 | 0.00 | 0.00 | 45 | 1008.6 | |
| 20260505100021 | 70 | 0.0 | 0.0 | 0.00 | 0.00 | 0.00 | 47 | 1008.5 | |
| 20260505095021 | 67 | 0.0 | 0.0 | 0.00 | 0.00 | 0.00 | 66 | 1008.2 | |
| 20260505094046 | 67 | 0.0 | 0.0 | 0.00 | 0.00 | 0.00 | 71 | 1008.3 | |
| 20260505093021 | 67 | 0.0 | 0.0 | 0.00 | 0.00 | 0.00 | 70 | 1008.0 | |
| 20260505092021 | 68 | 0.0 | 0.0 | 0.00 | 0.00 | 0.00 | 70 | 1007.8 | |
| 20260505091021 | 68 | 0.0 | 0.0 | 0.00 | 0.00 | 0.00 | 69 | 1008.0 | |
| 20260505090046 | 68 | 0.0 | 0.0 | 0.00 | 0.00 | 0.00 | 69 | 1008.0 | |
| 20260505085021 | 69 | 0.0 | 0.0 | 0.00 | 0.00 | 0.00 | 68 | 1008.1 | |
| 20260505084021 | 70 | 0.0 | 0.0 | 0.00 | 0.00 | 0.00 | 66 | 1008.5 | |
| 20260505083021 | 70 | 0.0 | 0.0 | 0.00 | 0.00 | 0.00 | 66 | 1008.5 | |
| 20260505082021 | 70 | 0.0 | 0.0 | 0.00 | 0.00 | 0.00 | 65 | 1008.4 | |
| 20260505081024 | 70 | 0.0 | 0.0 | 0.00 | 0.00 | 0.00 | 66 | 1008.5 |